STARLINK-1217 (45226 NORAD) Tracking and Keplerian Element Data

This shows tracking and keplerian element data for the satellite.

Feedback or suggestion? Click here.




ElementValue
Catalog45226
NameSTARLINK-1217
Epoch Orbit2238
Epoch Day190.25001157
Epoch Year2020
RAAN301.1716
Inclination53.0019
Eccentricity0.0001348
Argument of Perigee103.022
Mean Anonmoly151.3506
Mean Motion15.05580731
Decay Rate0.00031535
L11 45226U 20012BA 20190.25001157 .00031535 00000-0 21738-2 0 9997
L22 45226 53.0019 301.1716 0001348 103.0220 151.3506 15.05580731 22383

Live tracking and technical data element details for STARLINK-1217 (NORAD 45226). STARLINK-1217 can be tracked NOW for your location showing map with azimuth and elevation plus other details from your city location.

Track the satellite on the map from your city or location and see movement details for azimuth, elevation, latitude, longitude, range, height, and movement on the map or in text.







IsCatalogInMostPopularTable: catalog: 45226, numindb: 25
Update: records affected: 1



GetName: 45226 STARLINK-1217

Hit Count: updated at: Fri, 10 Jul 2020 03:11:59 GMT